[[{"header":{"parameterUnit":"m.s-1","parameterCategory":1,"la1":30.2991,"la2":30.254,"lo1":-89.0895,"lo2":-89.0444,"dy":0.0017,"dx":0.0017,"nx":28,"ny":28,"refTime":"2023-11-22T03:00:00:Z","depth":0,"parameterNumber":2,"parameterNumberName":"U-component_of_WINDS"},"data":[0,0,0,0,0,0,0,0,0,0,0,0,0,0,0,0,0,0,0,0,0,0,0,0,0,0,0,0,0,0,0,0,0,0,0,0,0,0,0,0,0,0,0,0,0,0,0,0,0,0,0,0,0,0,0,0,0,0,-0.4012,-0.4012,0,-0.4023,-0.4023,-0.4023,-0.3993,-0.3993,-0.3992,-0.3991,-0.4003,-0.4005,-0.4006,0,0,0,0,0,0,0,0,0,0,0,0,0,-0.3966,-0.3967,-0.4012,-0.4012,-0.4012,-0.4023,-0.4023,-0.4023,-0.3994,-0.3992,-0.3991,-0.399,-0.4003,-0.4004,-0.4006,0,0,0,0,0,0,0,0,0,0,0,0,0,-0.3983,-0.3968,-0.4012,-0.3999,-0.3998,-0.4023,-0.4023,-0.4023,-0.3994,-0.3992,-0.3991,-0.399,-0.4003,-0.4004,-0.4006,-0.4045,0,0,-0.4012,-0.4012,0,0,0,0,0,0,0,0,-0.3982,-0.3984,-0.4001,-0.4,-0.3999,-0.4005,-0.4012,-0.4031,-0.3994,-0.3995,-0.3991,-0.3989,-0.4005,-0.4007,-0.4012,-0.4046,-0.4046,-0.4012,-0.4013,-0.4014,-0.4014,0,0,0,0,0,0,0,-0.3981,-0.3984,-0.4016,-0.4001,-0.4,-0.3993,-0.3993,-0.4015,-0.4008,-0.3995,-0.3993,-0.3995,-0.4005,-0.401,-0.4012,-0.4047,-0.4012,-0.4013,-0.4015,-0.4015,-0.4113,-0.4115,0,0,0,0,0,0,-0.3981,-0.3983,-0.4016,-0.4017,-0.3986,-0.3995,-0.3995,-0.4005,-0.4008,-0.4007,-0.3996,-0.3993,-0.4008,-0.401,-0.4012,-0.4059,-0.4014,-0.4015,-0.4016,-0.4112,-0.4114,-0.4115,0,0,0,0,0,0,-0.398,-0.3984,-0.4016,-0.3999,-0.4003,-0.3997,-0.4007,-0.4006,-0.4011,-0.4008,-0.4007,-0.4003,-0.4007,-0.401,-0.4037,-0.4059,-0.4016,-0.4018,-0.411,-0.4112,-0.4114,-0.4152,0,0,0,0,0,0,-0.3979,-0.3984,-0.3999,-0.4,-0.4004,-0.404,-0.4009,-0.4007,-0.4014,-0.4011,-0.4015,-0.4014,-0.4006,-0.4035,-0.4039,-0.4061,-0.4019,-0.4108,-0.4111,-0.4114,-0.4149,-0.4155,-0.4161,0,0,0,0,0,-0.3977,-0.4009,-0.4,-0.4004,-0.4022,-0.4042,-0.4044,-0.4034,-0.4016,-0.4031,-0.4029,-0.4014,-0.4055,-0.4038,-0.4042,-0.4065,-0.4107,-0.411,-0.4113,-0.4146,-0.4154,-0.4161,0,0,0,0,0,0,-0.4012,-0.4009,-0.3999,-0.4032,-0.4037,-0.4037,-0.4055,-0.4042,-0.4053,-0.405,-0.4037,-0.4038,-0.4068,-0.4069,-0.4049,-0.4103,-0.4078,-0.4083,-0.4102,-0.4109,-0.4115,-0.4115,-0.4021,0,0,0,0,0,-0.4023,-0.4039,-0.4036,-0.4066,-0.4069,-0.4062,-0.407,-0.4061,-0.4066,-0.4069,-0.4068,-0.4074,-0.4089,-0.4099,-0.4112,-0.4148,-0.4149,-0.4166,-0.4172,-0.4177,-0.4181,-0.4201,-0.4209,-0.4126,-0.4126,-0.4126,0,0,-0.4047,-0.4048,-0.4059,-0.4073,-0.4076,-0.4093,-0.4064,-0.4083,-0.4096,-0.4072,-0.4098,-0.4098,-0.4103,-0.4136,-0.415,-0.4137,-0.4204,-0.4181,-0.4185,-0.4187,-0.4206,-0.4213,-0.422,-0.4129,-0.4128,-0.4128,0,0,-0.41,-0.4102,-0.4127,-0.413,-0.4135,-0.4129,-0.4135,-0.4136,-0.4135,-0.4161,-0.4143,-0.4158,-0.4183,-0.4188,-0.4194,-0.4247,-0.4234,-0.4251,-0.4283,-0.4303,-0.4309,-0.4315,-0.4335,-0.4342,-0.4255,-0.4256,-0.4256,0,-0.413,-0.4154,-0.4141,-0.4162,-0.4168,-0.4146,-0.4172,-0.4176,-0.4185,-0.419,-0.4176,-0.4206,-0.4208,-0.4242,-0.4255,-0.426,-0.4267,-0.4252,-0.4309,-0.4315,-0.432,-0.4339,-0.4346,-0.4258,-0.4258,-0.4257,-0.4257,0,-0.4191,-0.4208,-0.4228,-0.4236,-0.4245,-0.4268,-0.4258,-0.4269,-0.4259,-0.4255,-0.4282,-0.4283,-0.4296,-0.4303,-0.4294,-0.4335,-0.4327,-0.4311,-0.4286,-0.433,-0.4348,-0.4355,-0.4261,-0.426,-0.426,-0.4259,0,0,-0.4268,-0.4267,-0.4275,-0.4279,-0.4282,-0.4295,-0.4316,-0.4328,-0.4338,-0.4344,-0.4363,-0.4384,-0.4369,-0.4375,-0.4366,-0.4383,-0.4426,-0.4365,-0.4365,-0.4377,-0.4472,-0.4485,-0.4494,-0.4416,-0.4417,-0.4418,-0.4472,0,-0.432,-0.4357,-0.4345,-0.4383,-0.4399,-0.4378,-0.4396,-0.44,-0.4397,-0.441,-0.4407,-0.4422,-0.4401,-0.4404,-0.442,-0.4417,-0.4445,-0.4413,-0.4434,-0.4435,-0.4435,-0.4503,-0.4517,-0.4567,-0.4478,-0.448,-0.448,0,-0.4387,-0.4396,-0.4435,-0.4435,-0.4441,-0.4458,-0.4468,-0.4481,-0.4485,-0.4481,-0.4488,-0.4475,-0.4496,-0.447,-0.45,-0.4478,-0.4486,-0.4486,-0.4487,-0.449,-0.4462,-0.4509,-0.4583,-0.4591,-0.4491,-0.449,-0.4489,0,-0.4441,-0.4462,-0.4488,-0.4491,-0.4492,-0.4504,-0.4505,-0.4507,-0.4515,-0.4524,-0.4529,-0.454,-0.4546,-0.4555,-0.4546,-0.4527,-0.4577,-0.455,-0.4576,-0.4576,-0.4589,-0.4589,-0.4667,-0.4591,-0.4591,-0.4591,-0.4591,0,-0.4502,-0.4527,-0.4512,-0.4528,-0.4555,-0.4541,-0.4569,-0.4567,-0.4569,-0.4585,-0.4566,-0.4582,-0.4568,-0.4582,-0.4574,-0.4601,-0.4603,-0.4602,-0.46,-0.4604,-0.4605,-0.461,-0.4607,-0.4593,-0.4592,-0.4592,-0.4592,0,-0.4567,-0.4558,-0.4585,-0.4582,-0.4582,-0.4603,-0.4601,-0.4616,-0.461,-0.463,-0.4634,-0.4627,-0.4642,-0.4633,-0.4649,-0.4644,-0.4678,-0.4671,-0.4677,-0.4676,-0.4702,-0.47,-0.4788,-0.4799,-0.4715,-0.4716,-0.4717,0,-0.4608,-0.4626,-0.4625,-0.4634,-0.4636,-0.4651,-0.4658,-0.4645,-0.4653,-0.4659,-0.4673,-0.4687,-0.4697,-0.4723,-0.4719,-0.4731,-0.4725,-0.4754,-0.4726,-0.473,-0.4727,-0.4726,-0.4728,-0.4761,-0.4762,-0.4763,-0.4763,0,-0.4681,-0.4675,-0.4687,-0.4697,-0.4706,-0.4713,-0.4719,-0.4727,-0.4714,-0.4724,-0.474,-0.4748,-0.4763,-0.4777,-0.4787,-0.4788,-0.4774,-0.4772,-0.4778,-0.4784,-0.4788,-0.4787,-0.4694,-0.477,-0.477,-0.4769,-0.4769,-0.4768,-0.4736,-0.4752,-0.4753,-0.4767,-0.4769,-0.4775,-0.4789,-0.4785,-0.4797,-0.4809,-0.4799,-0.4818,-0.482,-0.4832,-0.4835,-0.4849,-0.4837,-0.4847,-0.485,-0.4853,-0.4857,-0.4784,-0.4851,-0.4851,-0.485,-0.485,-0.485,0,-0.4809,-0.4809,-0.4821,-0.4829,-0.484,-0.4824,-0.4829,-0.4839,-0.4855,-0.4859,-0.4869,-0.4887,-0.49,-0.4896,-0.4908,-0.492,-0.4914,-0.4924,-0.4924,-0.4924,-0.4866,-0.486,-0.4929,-0.4929,-0.4929,-0.4929,-0.4929,-0.4929,-0.4849,-0.4875,-0.4869,-0.4895,-0.4895,-0.4912,-0.4917,-0.4922,-0.4924,-0.4945,-0.4955,-0.4952,-0.4953,-0.4965,-0.4976,-0.4975,-0.4981,-0.4994,-0.499,-0.4936,-0.4928,-0.4921,-0.4915,-0.4995,-0.4995,-0.5047,-0.5047,-0.5048]},{"header":{"parameterUnit":"m.s-1","parameterCategory":1,"la1":30.2991,"la2":30.254,"lo1":-89.0895,"lo2":-89.0444,"dy":0.0017,"dx":0.0017,"nx":28,"ny":28,"refTime":"2023-11-22T03:00:00:Z","depth":0,"parameterNumber":3,"parameterNumberName":"V-component_of_WINDS"},"data":[0,0,0,0,0,0,0,0,0,0,0,0,0,0,0,0,0,0,0,0,0,0,0,0,0,0,0,0,0,0,0,0,0,0,0,0,0,0,0,0,0,0,0,0,0,0,0,0,0,0,0,0,0,0,0,0,0,0,-0.9056,-0.9057,0,-0.9118,-0.9119,-0.9119,-0.9147,-0.9147,-0.9147,-0.9147,-0.9209,-0.9211,-0.9213,0,0,0,0,0,0,0,0,0,0,0,0,0,-0.8961,-0.8963,-0.9056,-0.9057,-0.9058,-0.9118,-0.9119,-0.912,-0.9147,-0.9147,-0.9147,-0.9147,-0.9209,-0.9211,-0.9213,0,0,0,0,0,0,0,0,0,0,0,0,0,-0.9011,-0.8963,-0.9056,-0.9079,-0.9081,-0.9118,-0.9119,-0.912,-0.9147,-0.9147,-0.9147,-0.9147,-0.9208,-0.9211,-0.9213,-0.9231,0,0,-0.9221,-0.9222,0,0,0,0,0,0,0,0,-0.9008,-0.9014,-0.9075,-0.9077,-0.908,-0.9125,-0.9108,-0.9157,-0.9147,-0.9122,-0.9147,-0.9147,-0.9181,-0.9186,-0.9198,-0.9234,-0.9237,-0.9221,-0.9223,-0.9224,-0.9225,0,0,0,0,0,0,0,-0.9004,-0.9012,-0.9081,-0.9075,-0.9079,-0.9086,-0.9092,-0.9118,-0.9152,-0.9124,-0.9126,-0.9133,-0.9183,-0.9195,-0.92,-0.9238,-0.9221,-0.9224,-0.9225,-0.9226,-0.9292,-0.9293,0,0,0,0,0,0,-0.8997,-0.9009,-0.9079,-0.9083,-0.9043,-0.9087,-0.9095,-0.9111,-0.9151,-0.9157,-0.9133,-0.9134,-0.9191,-0.9196,-0.9202,-0.9226,-0.9224,-0.9226,-0.9228,-0.9292,-0.9292,-0.9293,0,0,0,0,0,0,-0.8995,-0.9003,-0.9076,-0.9046,-0.9056,-0.9089,-0.9106,-0.9112,-0.9124,-0.9158,-0.9164,-0.914,-0.9191,-0.9198,-0.9224,-0.9228,-0.9228,-0.923,-0.9292,-0.9292,-0.9293,-0.9274,0,0,0,0,0,0,-0.8992,-0.9002,-0.901,-0.9046,-0.9057,-0.9097,-0.9107,-0.9113,-0.9129,-0.9131,-0.9166,-0.9172,-0.9191,-0.922,-0.9226,-0.9232,-0.9232,-0.9292,-0.9292,-0.9292,-0.9274,-0.9274,-0.9273,0,0,0,0,0,-0.8989,-0.9002,-0.901,-0.9018,-0.9068,-0.9098,-0.9104,-0.9127,-0.9129,-0.9137,-0.9159,-0.9171,-0.9227,-0.9222,-0.923,-0.9236,-0.9292,-0.9292,-0.9292,-0.9275,-0.9274,-0.9273,0,0,0,0,0,0,-0.8965,-0.9007,-0.9017,-0.9042,-0.9066,-0.9102,-0.9113,-0.9125,-0.9149,-0.915,-0.9176,-0.9184,-0.9207,-0.9224,-0.9219,-0.9256,-0.926,-0.9262,-0.9244,-0.9244,-0.9243,-0.9238,-0.9234,0,0,0,0,0,-0.8963,-0.8984,-0.902,-0.9039,-0.905,-0.9079,-0.9093,-0.9109,-0.9134,-0.9145,-0.9168,-0.9193,-0.9216,-0.9231,-0.9254,-0.9277,-0.9285,-0.9285,-0.9284,-0.9284,-0.9285,-0.9299,-0.9299,-0.9294,-0.9294,-0.9294,0,0,-0.8959,-0.8984,-0.8996,-0.9035,-0.9055,-0.9076,-0.9088,-0.911,-0.9126,-0.9148,-0.9174,-0.9192,-0.9221,-0.9245,-0.9257,-0.926,-0.9288,-0.9284,-0.9283,-0.9285,-0.9299,-0.93,-0.93,-0.9294,-0.9294,-0.9294,0,0,-0.8962,-0.8983,-0.9001,-0.9022,-0.9052,-0.9072,-0.9076,-0.911,-0.9123,-0.9149,-0.9167,-0.9186,-0.9225,-0.9245,-0.9261,-0.9271,-0.9283,-0.9277,-0.9274,-0.9287,-0.9287,-0.9288,-0.9291,-0.9292,-0.9279,-0.9279,-0.9279,0,-0.8952,-0.8985,-0.9009,-0.903,-0.9046,-0.9068,-0.9086,-0.9105,-0.9141,-0.9152,-0.9155,-0.9205,-0.9226,-0.9255,-0.9258,-0.9269,-0.9275,-0.9274,-0.9285,-0.9286,-0.9287,-0.9291,-0.9292,-0.9278,-0.9278,-0.9278,-0.9278,0,-0.8972,-0.8995,-0.9006,-0.9041,-0.9058,-0.9078,-0.9104,-0.9119,-0.9133,-0.9151,-0.9178,-0.9204,-0.9233,-0.9241,-0.9254,-0.9272,-0.9273,-0.928,-0.9285,-0.9286,-0.929,-0.9292,-0.9277,-0.9277,-0.9277,-0.9277,0,0,-0.8963,-0.901,-0.9014,-0.903,-0.9066,-0.9083,-0.9103,-0.9132,-0.9144,-0.9168,-0.9186,-0.9219,-0.9226,-0.9243,-0.9259,-0.927,-0.9276,-0.9276,-0.9277,-0.9275,-0.9298,-0.9292,-0.9294,-0.9284,-0.9285,-0.9285,-0.9295,0,-0.8971,-0.9008,-0.903,-0.9059,-0.908,-0.91,-0.9118,-0.9141,-0.9159,-0.9179,-0.9199,-0.9222,-0.9229,-0.924,-0.9252,-0.9273,-0.9281,-0.9273,-0.9301,-0.9302,-0.9294,-0.9296,-0.929,-0.9299,-0.9297,-0.9297,-0.9298,0,-0.8985,-0.9009,-0.904,-0.9073,-0.9082,-0.9098,-0.9126,-0.9145,-0.9172,-0.9184,-0.9203,-0.9219,-0.9241,-0.9243,-0.9274,-0.9268,-0.9281,-0.9293,-0.9294,-0.9298,-0.93,-0.93,-0.9302,-0.9303,-0.93,-0.93,-0.93,0,-0.8975,-0.9015,-0.9039,-0.9052,-0.9091,-0.9101,-0.9118,-0.9145,-0.916,-0.9184,-0.9195,-0.9221,-0.9235,-0.9255,-0.9277,-0.9277,-0.9306,-0.931,-0.9317,-0.9316,-0.9322,-0.9321,-0.9326,-0.933,-0.933,-0.933,-0.933,0,-0.8982,-0.9,-0.9035,-0.9049,-0.907,-0.9095,-0.9115,-0.9133,-0.9156,-0.9175,-0.9194,-0.921,-0.9239,-0.9259,-0.9276,-0.9299,-0.9306,-0.9316,-0.9321,-0.9315,-0.9313,-0.9324,-0.9324,-0.933,-0.933,-0.933,-0.933,0,-0.8974,-0.8999,-0.9026,-0.906,-0.9069,-0.9083,-0.9113,-0.9127,-0.9146,-0.9169,-0.9176,-0.9205,-0.923,-0.9254,-0.9287,-0.9299,-0.9322,-0.9327,-0.9313,-0.9315,-0.932,-0.9319,-0.9332,-0.9335,-0.9336,-0.9336,-0.9336,0,-0.8977,-0.8992,-0.9028,-0.9041,-0.9058,-0.9079,-0.9095,-0.912,-0.9136,-0.9167,-0.9178,-0.9204,-0.9227,-0.9265,-0.9289,-0.9315,-0.9322,-0.9324,-0.9326,-0.9319,-0.9322,-0.9321,-0.9323,-0.9324,-0.9324,-0.9323,-0.9323,0,-0.898,-0.8991,-0.9014,-0.904,-0.9059,-0.9081,-0.9103,-0.9113,-0.9142,-0.9159,-0.9185,-0.9202,-0.9236,-0.9261,-0.929,-0.9307,-0.932,-0.9323,-0.9326,-0.932,-0.9311,-0.9316,-0.9311,-0.9322,-0.9323,-0.9323,-0.9323,-0.9323,-0.8978,-0.8992,-0.9019,-0.9044,-0.9063,-0.9084,-0.9099,-0.912,-0.9142,-0.9171,-0.9184,-0.921,-0.9236,-0.9276,-0.9292,-0.9313,-0.9316,-0.932,-0.9321,-0.9322,-0.9321,-0.9307,-0.9318,-0.9318,-0.9318,-0.9318,-0.9318,0,-0.8982,-0.9,-0.9023,-0.9054,-0.9073,-0.9083,-0.9109,-0.9124,-0.9147,-0.917,-0.9191,-0.9221,-0.9246,-0.9272,-0.9298,-0.9309,-0.9316,-0.9316,-0.9315,-0.9319,-0.9316,-0.9311,-0.931,-0.931,-0.931,-0.931,-0.931,-0.931,-0.8986,-0.901,-0.9024,-0.9058,-0.9076,-0.9102,-0.9115,-0.9134,-0.9153,-0.9185,-0.9206,-0.9223,-0.9247,-0.9276,-0.9299,-0.9306,-0.9315,-0.9313,-0.9321,-0.9319,-0.9319,-0.932,-0.9315,-0.9314,-0.9314,-0.9323,-0.9323,-0.9323]}]]